Hollywood, FL

3:20 PM EDT on July 23, 2017 (GMT -0400)
North Perry

Weather History for KHWO - October, 2013

Change the Weather History Date:

Tuesday, October 29, 2013

  Actual Average (KFLL) Record (KFLL)
Temperature  
Mean Temperature 83 °F -  
Max Temperature 97 °F 83 °F 91 °F (1925)
Min Temperature 70 °F 68 °F 46 °F (1937)
Cooling Degree Days 18    
Growing Degree Days 33 (Base 50)    
Moisture  
Dew Point 65 °F    
Average Humidity 57    
Maximum Humidity 81    
Minimum Humidity 40    
Precipitation  
Precipitation 0.00 in - - ()
Sea Level Pressure  
Sea Level Pressure 30.15 in    
Wind  
Wind Speed 7 mph (NE)    
Max Wind Speed 20 mph    
Max Gust Speed 28 mph    
Visibility 10 miles    
Events      
Averages and records for this station are not official NWS values.
T = Trace of Precipitation, MM = Missing Value Source: NWS Daily Summary

Daily Weather History Graph

Daily Weather History Graph

Search for Another Location

Airport or City:

Trip Planner

Search our weather history database for the weather conditions in past years. The results will help you decide how hot, cold, wet, or windy it might be!

Date:

Astronomy

Oct. 29, 2013 Rise Set
Actual Time 7:27 AM EDT 6:41 PM EDT
Civil Twilight 7:04 AM EDT 7:04 PM EDT
Nautical Twilight 6:37 AM EDT 7:31 PM EDT
Astronomical Twilight 6:10 AM EDT 7:58 PM EDT
Moon 2:45 AM EDT (10/29) 3:28 PM EDT (10/29)
Length of Visible Light 12h 00m
Length of Day
11h 13m
Waning Crescent, 25% of the Moon is Illuminated
Oct 29
Waning Crescent
Nov 3
New
Nov 10
First Quarter
Nov 17
Full
Nov 25
Last Quarter

Hourly Weather History & Observations

Time (EDT) Temp. Heat Index Dew Point Humidity Pressure Visibility Wind Dir Wind Speed Gust Speed Precip Events Conditions
12:53 AM 75.9 °F - 63.0 °F 64% 30.14 in 10.0 mi Calm Calm - N/A   Clear
1:53 AM 75.9 °F - 63.0 °F 64% 30.13 in 10.0 mi Calm Calm - N/A   Clear
2:53 AM 73.9 °F - 64.0 °F 71% 30.12 in 10.0 mi North 4.6 mph - N/A   Clear
3:53 AM 72.0 °F - 64.0 °F 76% 30.11 in 10.0 mi Calm Calm - N/A   Clear
4:53 AM 71.1 °F - 64.0 °F 78% 30.11 in 10.0 mi North 3.5 mph - N/A   Clear
5:53 AM 70.0 °F - 64.0 °F 81% 30.13 in 10.0 mi North 5.8 mph - N/A   Clear
6:53 AM 71.1 °F - 64.0 °F 78% 30.14 in 10.0 mi NNW 3.5 mph - N/A   Clear
7:53 AM 71.1 °F - 64.0 °F 78% 30.16 in 10.0 mi North 4.6 mph - N/A   Clear
8:53 AM 75.9 °F - 66.9 °F 74% 30.18 in 10.0 mi North 4.6 mph - N/A   Partly Cloudy
9:53 AM 93.0 °F 96.4 °F 66.9 °F 42% 30.19 in 10.0 mi ENE 11.5 mph - N/A   Partly Cloudy
10:53 AM 93.9 °F 98.6 °F 68.0 °F 43% 30.19 in 10.0 mi NE 17.3 mph 23.0 mph N/A   Scattered Clouds
11:53 AM 84.0 °F 86.3 °F 66.0 °F 55% 30.19 in 10.0 mi ENE 19.6 mph - N/A   Unknown
12:53 PM 84.0 °F 87.8 °F 69.1 °F 61% 30.17 in 10.0 mi NE 17.3 mph 25.3 mph N/A   Scattered Clouds
1:53 PM 82.9 °F 85.8 °F 68.0 °F 60% 30.14 in 10.0 mi ENE 17.3 mph - N/A   Overcast
2:53 PM 96.1 °F 101.0 °F 68.0 °F 40% 30.12 in 10.0 mi East 17.3 mph 27.6 mph N/A   Mostly Cloudy
3:53 PM 95.0 °F 99.0 °F 66.9 °F 40% 30.12 in 10.0 mi ENE 17.3 mph 21.9 mph N/A   Scattered Clouds
4:53 PM 93.0 °F 95.9 °F 66.0 °F 41% 30.12 in 10.0 mi ENE 16.1 mph 25.3 mph N/A   Partly Cloudy
5:53 PM 90.0 °F 91.7 °F 64.9 °F 43% 30.13 in 10.0 mi NE 16.1 mph 20.7 mph N/A   Clear
6:53 PM 89.1 °F 91.0 °F 64.9 °F 45% 30.15 in 10.0 mi NE 13.8 mph - N/A   Clear
7:53 PM 88.0 °F 89.6 °F 64.9 °F 46% 30.16 in 10.0 mi ENE 10.4 mph - N/A   Partly Cloudy
8:53 PM 87.1 °F 88.9 °F 64.9 °F 48% 30.17 in 10.0 mi ENE 11.5 mph - N/A   Clear
9:53 PM 87.1 °F 88.9 °F 64.9 °F 48% 30.18 in 10.0 mi ENE 15.0 mph - N/A   Clear
10:53 PM 87.1 °F 88.9 °F 64.9 °F 48% 30.18 in 10.0 mi ENE 13.8 mph 21.9 mph N/A   Clear
11:53 PM 86.0 °F 87.3 °F 64.0 °F 48% 30.18 in 10.0 mi ENE 8.1 mph - N/A   Clear